Regional Weather Roundup
Issued by NWS

Home | Current Version | Previous Version | Text Only | Print | Product List | Glossary Off
Versions: 1 2 3 4 5 6 7 8 9 10 11 12 13 14 15 16 17 18 19 20 21 22 23 24 25 26 27 28 29 30 31 32 33 34 35 36 37 38 39 40 41 42 43 44 45 46 47 48

000
ASUS43 KDMX 251007
RWRIA

WEATHER ROUNDUP FOR IOWA
NATIONAL WEATHER SERVICE DES MOINES IA
500 AM CDT FRI JUL 25 2014

NOTE: "FAIR" INDICATES FEW OR NO CLOUDS BELOW 12,000 FEET WITH NO
SIGNIFICANT WEATHER AND/OR OBSTRUCTIONS TO VISIBILITY.

* - THESE STATIONS ARE NOT NWS STATIONS...THUS NOT UNDER NWS
QUALITY CONTROL.  THEY ALSO DO NOT REPORT WEATHER SUCH
AS PRECIPITATION OR FOG.

IAZ001>003-012>014-020>022-031>034-043>046-251100-
   NORTHWEST IOWA

CITY           SKY/WX    TMP DP  RH WIND       PRES   REMARKS
CARROLL *      PTCLDY    64  61  88 E20G26    29.88R
CHEROKEE *     PTCLDY    66  63  88 SE13G23   29.83R
DENISON *      CLEAR     68  63  83 NE13G18   29.80R
LE MARS *      CLEAR     66  63  88 SE12G18   29.79R
ORANGE CITY *  CLEAR     66  61  82 NE10      29.85R
SHELDON *      MOCLDY    64  63  94 E13G21    29.86R
SIOUX CITY     PTCLDY    74  66  76 E10       29.74R
SPENCER        CLOUDY    66  62  87 E13G23    29.91R
STORM LAKE *   CLEAR     64  63  94 SE20      29.86R
$$

IAZ055>058-069>071-079>083-090>094-251100-
   SOUTHWEST IOWA

CITY           SKY/WX    TMP DP  RH WIND       PRES   REMARKS
ATLANTIC *     MOCLDY    70  61  73 E6        29.83R
AUDUBON *      CLEAR     70  64  83 SE9       29.85R
CLARINDA *     PTCLDY    70  61  73 S13       29.83F
COUNCIL BLFS *   N/A     75  70  83 SW15G23   29.76R
CRESTON *      PTCLDY    66  59  77 SE17      29.83F
HARLAN  *        N/A     70  63  78 SE12      29.82S
LAMONI         CLOUDY    66  57  72 S12G18    29.90F
RED OAK *      CLOUDY    68  63  83 S8        29.79R
SHENANDOAH *   CLEAR     70  63  78 S10       29.81F
$$

IAZ047>049-059>061-072>074-084-251100-
   CENTRAL IOWA

CITY           SKY/WX    TMP DP  RH WIND       PRES   REMARKS
AMES           CLOUDY    63  62  97 E13G21    29.99R
ANKENY *       CLOUDY    63  61  94 E14G24    29.95R
CHARITON *     CLOUDY    66  57  72 SE13      29.92S
DES MOINES     CLOUDY    66  60  81 E17G24    29.92F
GRINNELL*      RAIN      61  59  94 SE12      30.03F
KNOXVILLE *    HVY RAIN  63  59  88 E18G28    29.97R
MARSHALLTOWN   TSTM      63  62  97 S8        30.01R FOG
PELLA *        HVY RAIN  63  61  94 E9        30.04R
PERRY *        CLOUDY    64  61  88 E13G20    29.94R
$$

IAZ004>006-015-016-023>025-035-036-251100-
   NORTH CENTRAL IOWA

CITY           SKY/WX    TMP DP  RH WIND       PRES   REMARKS
ALGONA *       CLOUDY    66  63  88 S16G25    29.86R
CLARION *      LGT RAIN  64  63  94 SE14G23   29.92R
ESTHERVILLE    TSTM      64  62  93 SE13G22   29.87R
FORT DODGE *   CLOUDY    64  61  88 SE17G26   29.91F
MASON CITY     LGT RAIN  64  63  96 E6        29.91R
FOREST CITY *  LGT RAIN  64  64 100 SE6       29.87R
IOWA FALLS *   RAIN      63  61  94 SE14G22   29.98F
$$

IAZ007>011-017>019-026>030-037>042-050>054-066-251100-
   NORTHEAST IOWA

CITY           SKY/WX    TMP DP  RH WIND       PRES   REMARKS
CEDAR RAPIDS   LGT RAIN  63  58  83 S7        30.02R
CHARLES CITY * CLOUDY    64  59  82 S13       29.92R
CLINTON *      CLOUDY    61  55  82 S5        30.07R
DECORAH *      DRIZZLE   63  59  88 S10G17    29.97F
DUBUQUE        TSTM      61  58  90 SW5       30.08R
MONTICELLO *   CLOUDY    63  59  88 N7        30.07R
OELWEIN *      LGT RAIN  63  61  94 S10       30.03F
WATERLOO       RAIN      63  60  90 S7        30.01R
$$

IAZ064-065-067-068-078-251100-
   EAST CENTRAL IOWA

CITY           SKY/WX    TMP DP  RH WIND       PRES   REMARKS
DAVENPORT      CLOUDY    62  56  80 S7        30.04R
IOWA CITY      LGT RAIN  63  60  90 CALM      30.03F
MT. PLEASANT * LGT RAIN  63  55  77 CALM      30.03R
MUSCATINE *    CLEAR     61  57  88 N6        30.04R
QUAD CITIES    CLOUDY    62  55  77 SE5       30.04R
$$

IAZ062-063-075>077-085>089-095>099-251100-
   SOUTHEAST IOWA

CITY           SKY/WX    TMP DP  RH WIND       PRES   REMARKS
BURLINGTON     CLOUDY    65  55  70 VRB3      30.02R
FAIRFIELD *    MOCLDY    63  57  82 E5        30.03F
FORT MADISON * CLEAR     66  55  68 CALM      30.03R
KEOKUK *       CLEAR     66  55  68 SE9       29.98S
OSKALOOSA *    RAIN      63  59  88 SE13      30.02R
CENTERVILLE *  PTCLDY    64  55  72 SE7       29.97R
OTTUMWA        HVY RAIN  63  59  87 NE7       30.04R FOG
WASHINGTON *   CLOUDY    63  59  88 S7        30.01F
$$

ABBREVIATIONS USED IN REMARKS
   TC - TEMPERATURES IN CELSIUS
  WCI - WIND CHILL INDEX
   HX - HEAT INDEX
  VSB - VISIBILITY
$$



USA.gov is the U.S. government's official web portal to all federal, state and local government web resources and services.